Probability
0 0 0 0 0 0 0 0 0 0 0 0 0 0 0 0 0 0 0 0 0 0 0 0 0 0 0 0 0 0 0 0 0 0 0 0 0 0 0 0 0 0 0 0
0 0 0 0 0 0 0 0 0 0 0 0 0 0 0 0 0 0 0 0 0 0 0 0 0 0 0 0 0 0 0 0 0 0 0 0 0 0 0 0 0 0 0 0
0 0 0 0 0 0 0 0 0 0 0 0 0 0 0 0 0 0 0 0 0 0 0 0 0 0 0 0 0 0 0 0 0 0 0 0 0 0 0 0 0 0 0 0
0 0 0 0 0 0 0 0 0 0 0 0 0 0 0 0 0 0 0 0 0 0 0 0 0 0 0 0 0 0 0 0 0 0 0 0 0 0 0 0 0 0 0 0
0 0 0 0 0 0 0 0 0 0 0 0 0 0 0 0 0 0 0 0 0 0 0 0 0 0 0 0 0 0 0 0 0 0 0 0 0 0 0 0 0 0 0 0
0 0 0 0 0 0 0 0 0 0 0 0 0 0 0 0 0 0 0 0 0 0 0 0 0 0 0 0 0 0 0 0 0 0 0 0 0 0 0 0 0 0 0 0
0 0 0 0 0 0 0 0 0 0 0 0 0 0 0 0 0 0 0 0 0 0 0 0 0 0 0 0 0 0 0 0 0 0 0 0 0 0 0 0 0 0 0 0
0 0 0 0 0 0 0 0 0 0 0 0 0 0 0 0 0 0 0 0 0 0 0 0 0 0 0 0 0 0 0 0 0 0 0 0 0 0 0 0 0 0 0 0
0 0 0 0 0 0 0 0 0 0 0 0 0 0 0 0 0 0 0 0 0 0 0 0 0 0 0 0 0 0 0 0 0 0 0 0 0 0 0 0 0 0 0 0
0 0 0 0 0 0 0 0 0 0 0 0 0 0 0 0 0 0 0 0 0 0 0 0 0 0 0 0 0 0 0 0 0 0 0 0 0 0 0 0 0 0 0 0
0 0 0 0 0 0 0 0 0 0 0 0 0 0 0 0 0 0 0 0 0 0 0 0 0 0 0 0 0 0 0 0 0 0 0 0 0 0 0 0 0 0 0 0
0 0 0 0 0 0 0 0 0 0 0 0 0 0 0 0 0 0 0 0 0 0 0 0 0 0 0 0 0 0 0 0 0 0 0 0 0 0 0 0 0 0 0 0
0 0 0 0 0 0 0 0 0 0 0 0 0 0 0 0 0 0 0 0 0 0 0 0 0 0 0 0 0 0 0 0 0 0 0 0 0 0 0 0 0 0 0 0
0 0 0 0 0 0 0 0 0 0 0 0 0 0 0 0 0 0 0 0 0 0 0 0 0 0 0 0 0 0 0 0 0 0 0 0 0 0 0 0 0 0 0 0
0 0 0 0 0 0 0 0 0 0 0 0 0 0 0 0 0 0 0 0 0 0 0 0 0 0 0 0 0 0 0 0 0 0 0 0 0 0 0 0 0 0 0 0
0 0 0 0 0 0 0 0 0 0 0 0 0 0 0 0 0 0 0 0 0 0 0 0 0 0 0 0 0 0 0 0 0 0 0 0 0 0 0 0 0 0 0 0
1 0 0 0 0 0 0 0 0 0 0 0 0 0 0 0 0 0 0 0 0 0 0 0 0 0 0 0 0 0 0 0 0 0 0 0 0 0 0 0 0 0 0 0
1 0 0 0 0 0 0 0 0 0 0 0 0 0 0 0 0 0 0 0 0 0 0 0 0 0 0 0 0 0 0 0 0 0 0 0 0 0 0 0 0 0 0 0
1 0 0 0 0 0 0 0 0 0 0 0 0 0 0 0 0 0 0 0 0 0 0 0 0 0 0 0 0 0 0 0 0 0 0 0 0 0 0 0 0 0 0 0
0 0 0 0 0 0 0 0 0 0 0 0 0 0 0 0 0 0 0 0 0 0 0 0 0 0 0 0 0 0 0 0 0 0 0 0 0 0 0 0 0 0 0 0
0 0 0 0 0 0 0 0 0 0 0 0 0 0 0 0 0 0 0 0 0 0 0 0 0 0 0 0 0 0 0 0 0 0 0 0 0 0 0 0 0 0 0 0
0 0 0 0 0 0 0 0 0 0 0 0 0 0 0 0 0 0 0 0 0 0 0 0 0 0 0 0 0 0 0 0 0 0 0 0 0 0 0 0 0 0 0 0
0 0 0 0 0 0 0 0 0 0 0 0 0 0 0 0 0 0 0 0 0 0 0 0 0 0 0 0 0 0 0 0 0 0 0 0 0 0 0 0 0 0 0 0
0 0 0 0 0 0 0 0 0 0 0 0 0 0 0 0 0 0 0 0 0 0 0 0 0 0 0 0 0 0 0 0 0 0 0 0 0 0 0 0 0 0 0 0
0 0 0 0 0 0 0 0 0 0 0 0 0 0 0 0 0 0 0 0 0 0 0 0 0 0 0 0 0 0 0 0 0 0 0 0 0 0 0 0 0 0 0 0
0 0 0 0 0 0 0 0 0 0 0 0 0 0 0 0 0 0 0 0 0 0 0 0 0 0 0 0 0 0 0 0 0 0 0 0 0 0 0 0 0 0 0 0
Wind_Speed
6 7 13 15 14 6 6 6 6 6 4 6 11 13 12 10 8 10 10 10 10 10 8 6 6 5 4 4 5 6 6 6 5 4 4 5 6 6 5 6 7 8 8 9
6 15 12 8 9 8 6 7 6 4 3 4 7 13 11 11 11 11 12 12 11 8 6 5 4 3 4 5 5 6 6 6 6 6 5 4 4 4 5 5 6 8 9 9
15 7 10 10 9 12 11 10 8 4 2 3 4 10 9 9 9 10 10 10 9 10 8 6 5 4 4 4 5 5 6 6 6 6 3 1 1 1 2 5 6 8 9 10
11 8 9 11 12 13 14 9 7 6 3 5 3 8 9 8 9 11 11 10 10 9 8 6 5 4 4 5 4 4 5 5 5 5 4 5 5 7 7 6 6 7 8 10
11 10 12 14 12 12 6 6 7 6 5 5 4 7 11 5 9 11 10 10 10 9 8 8 6 5 4 3 2 3 3 3 3 4 5 6 6 6 5 4 6 6 7 9
7 6 11 11 8 10 6 4 2 1 2 10 11 9 12 8 11 8 8 9 9 8 7 6 5 4 2 2 1 1 1 2 2 3 4 5 6 6 5 5 6 6 5 6
9 7 5 6 8 7 8 7 3 4 7 11 7 10 14 9 9 10 11 10 9 8 7 6 5 3 2 2 1 1 1 2 2 3 4 5 6 6 7 6 6 6 5 6
12 11 12 8 11 11 13 12 9 9 8 4 5 12 12 8 8 8 8 8 7 7 6 6 5 4 3 2 2 1 1 2 1 2 3 4 5 5 5 6 6 6 6 6
14 10 6 9 7 12 10 11 7 4 1 3 7 8 11 6 6 6 6 7 7 7 6 5 4 3 3 2 1 1 1 1 2 2 2 3 4 5 5 6 6 6 6 5
8 7 5 6 5 7 9 9 6 7 7 8 7 7 8 6 7 7 7 8 7 5 5 4 4 3 2 2 1 1 0 1 2 2 2 3 4 5 5 5 6 6 6 6
6 7 5 7 13 15 9 10 8 7 6 7 6 9 8 10 9 11 10 9 7 6 5 4 3 3 2 2 1 1 1 1 2 3 3 3 4 4 5 5 6 7 7 7
7 5 5 8 5 8 9 11 12 10 9 7 6 10 5 6 7 7 8 7 6 6 5 4 4 3 2 1 1 0 1 1 3 3 3 4 4 4 5 6 7 7 7 7
9 7 6 3 4 6 10 10 12 8 6 7 8 10 3 2 3 4 6 5 5 5 4 3 2 2 2 1 0 0 1 2 3 3 3 4 4 5 5 7 7 7 7 8
8 6 10 15 9 10 11 13 14 11 10 11 14 12 6 4 4 4 4 5 4 4 4 3 3 2 2 1 1 1 1 2 3 3 4 4 5 5 6 7 7 7 7 7
7 8 7 6 4 7 9 13 17 19 17 14 14 15 14 9 8 7 5 5 4 4 4 5 4 3 2 2 1 1 1 2 3 3 4 5 6 6 6 7 7 7 7 8
7 7 7 7 6 7 8 14 18 21 19 17 13 15 10 9 6 6 6 7 7 7 7 6 5 4 4 3 2 1 1 2 2 3 4 5 6 6 6 7 8 8 8 8
9 6 6 8 5 3 13 18 20 18 17 17 22 22 7 8 10 12 10 9 9 8 7 6 6 5 4 3 3 2 2 2 2 3 5 5 6 7 7 8 8 8 8 8
11 8 4 4 6 14 14 8 13 17 18 18 16 12 11 14 11 9 8 9 9 8 7 6 5 4 3 2 1 1 1 2 2 3 4 5 6 7 8 8 8 8 8 8
11 11 6 6 8 10 9 7 12 15 17 18 19 16 11 6 2 6 6 7 7 7 6 5 4 3 3 2 1 1 1 2 3 4 5 5 6 8 8 8 9 8 8 9
9 9 8 7 8 12 12 7 7 7 12 12 16 17 12 7 7 11 6 6 5 5 4 3 3 2 2 1 1 0 2 3 4 4 5 6 6 7 8 9 9 8 8 9
12 11 13 10 9 11 8 4 10 11 13 8 12 13 12 12 12 6 4 5 5 4 3 4 3 3 2 1 1 1 2 4 4 5 6 7 7 7 8 8 8 8 8 9
14 11 12 10 10 13 6 9 13 10 3 3 5 8 9 9 6 4 4 4 4 3 3 3 3 1 0 0 0 2 4 4 5 6 7 8 8 7 7 8 8 8 8 9
10 11 8 11 11 5 7 9 7 5 5 4 5 5 6 6 5 4 4 4 4 4 3 2 2 1 1 1 1 3 4 4 5 6 8 8 8 7 7 7 8 7 7 7
5 4 5 5 7 5 4 3 2 3 4 3 3 4 5 5 4 4 4 3 3 2 2 1 1 1 2 2 2 3 5 5 5 7 8 8 8 8 7 6 6 6 6 7
6 6 6 6 5 2 3 5 4 3 2 2 2 3 4 5 4 4 3 3 2 1 1 1 0 2 3 3 3 4 4 5 6 7 8 7 7 8 8 7 6 8 7 8
5 7 8 9 7 6 6 4 4 5 4 4 4 3 2 3 4 4 3 2 2 1 1 1 1 2 3 4 5 5 4 5 6 7 7 6 6 7 7 8 8 10 11 13
Wind_Direction
178 190 206 204 203 205 181 191 217 229 223 207 234 249 255 258 253 248 249 248 247 246 244 236 223 211 198 194 190 194 195 199 186 182 195 205 218 220 220 221 221 219 220 217
188 221 214 193 202 218 216 223 232 260 248 224 255 262 256 248 241 236 236 238 238 238 244 235 223 204 191 195 197 197 203 200 194 199 199 202 207 219 223 223 224 223 222 221
207 215 183 190 201 209 220 216 215 224 310 293 294 282 257 255 243 244 239 233 228 222 221 223 215 206 195 201 204 205 207 205 205 203 187 181 181 243 223 225 228 225 224 224
226 224 182 190 205 198 227 212 199 206 219 258 215 275 267 247 256 247 240 232 228 221 214 212 205 203 202 213 208 204 204 203 204 194 187 194 207 222 228 228 232 232 226 227
216 196 193 203 203 185 206 172 186 199 208 255 227 251 270 248 247 246 236 227 222 212 205 204 200 195 193 191 192 204 203 205 203 197 201 206 222 233 242 239 242 240 233 230
220 199 197 203 191 179 152 109 98 141 182 246 218 217 265 220 221 226 229 225 215 204 198 196 197 179 180 174 152 172 189 220 217 208 213 214 228 240 250 249 248 246 242 237
210 221 215 168 156 167 159 150 176 211 220 241 197 215 251 227 219 213 217 216 208 195 187 187 187 179 174 161 163 168 171 234 239 222 227 230 234 238 243 247 248 252 250 245
190 213 205 191 177 178 187 179 187 198 215 249 200 227 251 236 232 224 215 205 193 188 184 181 181 175 176 178 176 181 197 236 256 242 244 243 242 241 247 249 251 251 250 250
190 213 190 191 169 159 174 202 193 168 171 238 238 259 289 253 233 217 203 189 190 187 179 175 169 158 158 159 169 183 197 265 289 279 274 268 260 256 259 260 253 255 258 262
165 194 200 176 143 191 177 160 152 181 190 229 246 237 236 225 214 206 198 189 190 174 165 163 160 158 155 153 149 111 124 264 287 298 289 289 280 275 273 273 271 268 266 263
168 170 183 169 191 186 169 179 181 181 192 196 235 250 222 208 201 194 198 190 180 175 176 173 170 166 151 131 110 81 8 336 321 312 304 299 295 293 289 281 278 275 275 273
178 160 191 210 221 196 188 190 181 193 211 208 227 256 251 217 206 192 188 186 184 178 176 172 167 154 148 149 121 63 340 326 313 311 308 302 300 302 299 294 289 286 282 279
171 166 164 205 235 210 209 206 201 196 183 199 213 252 282 217 202 193 183 183 178 170 162 157 152 159 171 178 182 248 309 314 317 320 315 314 313 310 303 298 295 293 288 285
168 186 198 206 201 182 200 204 201 194 211 221 224 237 250 236 215 209 199 191 182 176 167 167 173 186 188 185 192 246 303 326 328 326 318 313 310 309 305 303 302 299 295 292
177 207 218 229 205 180 198 203 204 212 217 221 230 230 234 223 220 217 205 196 197 197 194 189 190 195 192 192 224 251 303 324 329 325 315 308 308 309 309 309 307 304 299 293
188 206 203 227 219 204 218 218 212 218 222 230 243 248 231 223 221 223 215 204 209 212 209 204 198 193 199 207 222 249 279 301 315 310 303 305 310 313 312 310 308 305 302 298
183 178 193 226 207 190 236 217 211 217 217 214 230 240 215 213 214 215 213 210 212 215 215 208 205 204 205 204 202 224 261 297 310 303 305 310 313 312 310 308 307 303 301 300
182 178 186 194 176 225 236 201 201 217 226 220 230 235 212 217 222 221 211 202 209 215 211 206 200 198 198 192 187 218 283 300 301 301 305 311 314 309 307 306 303 302 300 297
187 180 180 189 216 250 271 218 194 203 232 221 228 236 228 213 219 249 217 200 207 207 202 200 193 185 176 176 186 234 284 295 298 299 305 310 308 304 304 302 301 301 300 296
189 184 187 193 207 225 234 207 176 172 245 224 215 226 222 178 214 242 210 192 196 192 182 171 155 143 154 170 148 261 288 297 296 299 302 302 298 295 295 295 296 295 292 290
189 194 205 206 219 248 245 176 136 180 233 219 204 213 206 201 217 225 168 176 184 178 165 148 144 152 174 164 144 270 289 288 296 305 303 299 296 293 291 292 291 293 293 292
189 194 202 194 208 238 206 153 181 211 205 170 186 202 201 209 211 185 173 176 164 150 141 138 140 160 191 139 179 275 284 297 310 307 302 299 297 296 295 293 294 294 293 292
200 198 191 197 214 225 171 186 206 185 184 192 180 187 182 192 200 185 179 172 163 158 152 142 146 176 293 310 276 276 294 312 312 305 299 297 297 293 290 289 292 295 290 287
232 192 178 213 236 222 205 204 200 178 188 188 170 165 161 175 183 177 172 167 157 148 140 114 128 225 282 302 306 290 306 313 305 297 295 295 296 296 294 288 283 283 285 285
207 180 186 219 239 254 252 219 201 174 159 143 132 143 157 164 174 173 169 167 160 141 92 85 236 267 286 308 308 307 309 308 299 294 293 296 294 294 294 287 275 277 269 264
198 190 191 216 208 201 224 213 188 176 189 187 168 147 124 149 165 156 154 145 133 125 70 20 313 296 302 308 304 307 310 303 296 294 296 295 295 294 291 292 292 277 272 278